[[{"header":{"parameterUnit":"m.s-1","parameterCategory":1,"la1":30.2991,"la2":30.254,"lo1":-89.0895,"lo2":-89.0444,"dy":0.0017,"dx":0.0017,"nx":28,"ny":28,"refTime":"2024-12-11T09:00:00:Z","depth":0,"parameterNumber":2,"parameterNumberName":"U-component_of_WINDS"},"data":[0,0,0,0,0,0,0,0,0,0,0,0,0,0,0,0,0,0,0,0,0,0,0,0,0,0,0,0,0,0,0,0,0,0,0,0,0,0,0,0,0,0,0,0,0,0,0,0,0,0,0,0,0,0,0,0,0,0,-4.8938,-4.8938,0,-4.8946,-4.8946,-4.8946,-4.8779,-4.8775,-4.877,-4.8766,-4.8775,-4.8779,-4.8784,0,0,0,0,0,0,0,0,0,0,0,0,0,-4.8777,-4.8781,-4.8938,-4.8938,-4.8938,-4.8946,-4.8946,-4.8946,-4.878,-4.8775,-4.8769,-4.8764,-4.8773,-4.8779,-4.8784,0,0,0,0,0,0,0,0,0,0,0,0,0,-4.8823,-4.8783,-4.8938,-4.8856,-4.8849,-4.8946,-4.8946,-4.8946,-4.8781,-4.8775,-4.8768,-4.8762,-4.8772,-4.8778,-4.8785,-4.896,0,0,-4.8805,-4.8808,0,0,0,0,0,0,0,0,-4.882,-4.8829,-4.8868,-4.8862,-4.8854,-4.8855,-4.8892,-4.8951,-4.8783,-4.8807,-4.8766,-4.8758,-4.8807,-4.881,-4.8826,-4.8961,-4.8961,-4.8805,-4.8809,-4.8812,-4.8814,0,0,0,0,0,0,0,-4.8817,-4.8827,-4.8941,-4.8869,-4.886,-4.8819,-4.8818,-4.8903,-4.8845,-4.8804,-4.8792,-4.8796,-4.8802,-4.8821,-4.8825,-4.8961,-4.8805,-4.8811,-4.8815,-4.8818,-4.9237,-4.9244,0,0,0,0,0,0,-4.8825,-4.8826,-4.8941,-4.8941,-4.882,-4.8827,-4.8826,-4.8861,-4.8843,-4.8834,-4.8801,-4.8788,-4.8813,-4.8818,-4.8825,-4.9027,-4.8812,-4.8818,-4.8822,-4.923,-4.9239,-4.9247,0,0,0,0,0,0,-4.8823,-4.8837,-4.894,-4.888,-4.889,-4.8837,-4.8878,-4.8865,-4.8883,-4.8841,-4.883,-4.8831,-4.8807,-4.8816,-4.8927,-4.9025,-4.8821,-4.8827,-4.9222,-4.9233,-4.9243,-4.9435,0,0,0,0,0,0,-4.8819,-4.8837,-4.8904,-4.8883,-4.8894,-4.9043,-4.8884,-4.887,-4.8895,-4.8878,-4.8866,-4.8858,-4.8803,-4.8918,-4.8934,-4.9031,-4.8833,-4.9213,-4.9227,-4.9239,-4.942,-4.9451,-4.9478,0,0,0,0,0,-4.8814,-4.8958,-4.8908,-4.8923,-4.8976,-4.9049,-4.9055,-4.8989,-4.8904,-4.897,-4.8942,-4.8858,-4.9013,-4.8931,-4.8947,-4.9048,-4.9206,-4.9223,-4.9238,-4.9407,-4.9445,-4.9477,0,0,0,0,0,0,-4.8992,-4.8954,-4.8898,-4.904,-4.9049,-4.9021,-4.9102,-4.9033,-4.9066,-4.9048,-4.8965,-4.8964,-4.9088,-4.9079,-4.8989,-4.9216,-4.9094,-4.9114,-4.9217,-4.9253,-4.9281,-4.928,-4.8838,0,0,0,0,0,-4.9049,-4.9111,-4.9074,-4.9203,-4.9211,-4.9157,-4.9186,-4.9134,-4.914,-4.9143,-4.9123,-4.9132,-4.9182,-4.9217,-4.9261,-4.9418,-4.9412,-4.9495,-4.9524,-4.9549,-4.9566,-4.9646,-4.9682,-4.93,-4.9299,-4.9299,0,0,-4.9165,-4.9152,-4.9196,-4.9239,-4.924,-4.9306,-4.9161,-4.9237,-4.9285,-4.9154,-4.9257,-4.9244,-4.9249,-4.9383,-4.9441,-4.9379,-4.9671,-4.9569,-4.9589,-4.9593,-4.9667,-4.9703,-4.9735,-4.9311,-4.9309,-4.9307,0,0,-4.941,-4.9407,-4.9513,-4.9517,-4.9519,-4.9482,-4.9508,-4.949,-4.9476,-4.9578,-4.9481,-4.9537,-4.9626,-4.9632,-4.9647,-4.9894,-4.9817,-4.9911,-5.0063,-5.0142,-5.0172,-5.0198,-5.0284,-5.0316,-4.993,-4.993,-4.993,0,-4.9554,-4.9649,-4.9576,-4.9659,-4.968,-4.9565,-4.967,-4.9678,-4.9696,-4.9712,-4.9643,-4.9751,-4.9746,-4.9879,-4.9939,-4.9956,-4.9982,-4.9911,-5.0174,-5.0199,-5.0223,-5.0303,-5.0336,-4.9941,-4.994,-4.9939,-4.9938,0,-4.9825,-4.9893,-4.9978,-4.9997,-5.0028,-5.0122,-5.0063,-5.0103,-5.0049,-5.0019,-5.0124,-5.0114,-5.0153,-5.0181,-5.0129,-5.0307,-5.0268,-5.0188,-5.0064,-5.0271,-5.0346,-5.0377,-4.9957,-4.9953,-4.995,-4.9947,0,0,-5.0182,-5.0159,-5.0191,-5.0197,-5.0192,-5.0243,-5.0332,-5.0369,-5.0404,-5.042,-5.0491,-5.0569,-5.0494,-5.0511,-5.0459,-5.0529,-5.0723,-5.044,-5.0438,-5.0491,-5.0915,-5.0974,-5.1012,-5.0673,-5.0678,-5.0683,-5.0914,0,-5.0418,-5.0567,-5.0504,-5.0659,-5.0719,-5.0611,-5.0688,-5.0693,-5.0667,-5.0715,-5.0686,-5.0742,-5.064,-5.0649,-5.0714,-5.0686,-5.0807,-5.0669,-5.0736,-5.074,-5.0737,-5.1051,-5.1113,-5.1332,-5.0943,-5.0948,-5.0952,0,-5.0713,-5.074,-5.0901,-5.0883,-5.0906,-5.0977,-5.1005,-5.1052,-5.1055,-5.1031,-5.1051,-5.0983,-5.1068,-5.0946,-5.1061,-5.0968,-5.0993,-5.0983,-5.099,-5.0992,-5.0857,-5.1059,-5.1401,-5.1433,-5.0997,-5.0994,-5.099,0,-5.0954,-5.1031,-5.1137,-5.1146,-5.1128,-5.118,-5.1175,-5.1171,-5.1197,-5.1223,-5.1239,-5.1275,-5.1294,-5.1323,-5.1266,-5.1183,-5.1388,-5.1262,-5.1369,-5.1371,-5.1416,-5.1413,-5.1764,-5.1436,-5.1436,-5.1435,-5.1434,0,-5.1223,-5.1325,-5.1244,-5.1309,-5.142,-5.1347,-5.1459,-5.1442,-5.1439,-5.1498,-5.1408,-5.1465,-5.1388,-5.1438,-5.1394,-5.1495,-5.1505,-5.1487,-5.1474,-5.1494,-5.1496,-5.1507,-5.1489,-5.1444,-5.1442,-5.144,-5.1439,0,-5.151,-5.146,-5.1568,-5.1542,-5.1538,-5.1621,-5.1598,-5.1657,-5.1625,-5.1701,-5.1715,-5.1665,-5.1719,-5.1665,-5.1717,-5.1687,-5.1821,-5.1787,-5.182,-5.181,-5.1919,-5.1909,-5.2287,-5.2332,-5.1978,-5.1982,-5.1985,0,-5.1683,-5.1759,-5.1741,-5.1774,-5.1774,-5.1829,-5.1855,-5.1785,-5.1816,-5.1825,-5.1882,-5.1928,-5.1961,-5.2053,-5.2021,-5.2059,-5.2024,-5.2154,-5.2029,-5.2046,-5.2023,-5.2018,-5.2024,-5.2178,-5.2183,-5.2186,-5.2189,0,-5.1995,-5.1967,-5.2008,-5.204,-5.2074,-5.2096,-5.2111,-5.2144,-5.2072,-5.2111,-5.2164,-5.219,-5.2242,-5.2288,-5.2317,-5.2311,-5.2238,-5.2229,-5.2255,-5.2275,-5.229,-5.2281,-5.1887,-5.222,-5.2217,-5.2215,-5.2213,-5.2212,-5.2229,-5.229,-5.2287,-5.2335,-5.2339,-5.2355,-5.2408,-5.2383,-5.2426,-5.2462,-5.2419,-5.2485,-5.2484,-5.2515,-5.2518,-5.2568,-5.2513,-5.2552,-5.2561,-5.2572,-5.2587,-5.2285,-5.2574,-5.2573,-5.2572,-5.2571,-5.257,0,-5.2534,-5.2526,-5.2571,-5.2595,-5.2633,-5.2561,-5.2574,-5.261,-5.2669,-5.2675,-5.2709,-5.277,-5.2815,-5.2787,-5.2825,-5.287,-5.2837,-5.2882,-5.2877,-5.2876,-5.2635,-5.2607,-5.2908,-5.2908,-5.2907,-5.2907,-5.2907,-5.2907,-5.2697,-5.2796,-5.2768,-5.2868,-5.2859,-5.2922,-5.2935,-5.295,-5.2954,-5.3026,-5.3062,-5.3043,-5.3035,-5.3072,-5.3109,-5.31,-5.3117,-5.3173,-5.3152,-5.2927,-5.2893,-5.2862,-5.2835,-5.3178,-5.3179,-5.3388,-5.339,-5.3392]},{"header":{"parameterUnit":"m.s-1","parameterCategory":1,"la1":30.2991,"la2":30.254,"lo1":-89.0895,"lo2":-89.0444,"dy":0.0017,"dx":0.0017,"nx":28,"ny":28,"refTime":"2024-12-11T09:00:00:Z","depth":0,"parameterNumber":3,"parameterNumberName":"V-component_of_WINDS"},"data":[0,0,0,0,0,0,0,0,0,0,0,0,0,0,0,0,0,0,0,0,0,0,0,0,0,0,0,0,0,0,0,0,0,0,0,0,0,0,0,0,0,0,0,0,0,0,0,0,0,0,0,0,0,0,0,0,0,0,-1.3508,-1.3508,0,-1.3571,-1.3572,-1.3573,-1.3589,-1.3589,-1.3588,-1.3588,-1.3652,-1.3654,-1.3656,0,0,0,0,0,0,0,0,0,0,0,0,0,-1.3398,-1.34,-1.3508,-1.3508,-1.3509,-1.3571,-1.3572,-1.3573,-1.3589,-1.3589,-1.3588,-1.3588,-1.3651,-1.3654,-1.3656,0,0,0,0,0,0,0,0,0,0,0,0,0,-1.3452,-1.34,-1.3507,-1.3525,-1.3527,-1.3571,-1.3572,-1.3573,-1.3589,-1.3589,-1.3588,-1.3588,-1.365,-1.3653,-1.3656,-1.3687,0,0,-1.3666,-1.3667,0,0,0,0,0,0,0,0,-1.3449,-1.3456,-1.3522,-1.3524,-1.3526,-1.3572,-1.3557,-1.3611,-1.3589,-1.3566,-1.3588,-1.3587,-1.3625,-1.3631,-1.3644,-1.369,-1.3693,-1.3666,-1.3668,-1.3669,-1.367,0,0,0,0,0,0,0,-1.3445,-1.3453,-1.3533,-1.3522,-1.3525,-1.3529,-1.3536,-1.3567,-1.3598,-1.3568,-1.3569,-1.3576,-1.3627,-1.3641,-1.3645,-1.3694,-1.3666,-1.3669,-1.3671,-1.3672,-1.3766,-1.3766,0,0,0,0,0,0,-1.3438,-1.345,-1.3531,-1.3535,-1.3485,-1.3531,-1.3539,-1.3558,-1.3598,-1.3603,-1.3577,-1.3577,-1.3636,-1.3642,-1.3648,-1.3685,-1.3669,-1.3672,-1.3674,-1.3765,-1.3766,-1.3767,0,0,0,0,0,0,-1.3436,-1.3446,-1.3528,-1.3493,-1.3503,-1.3534,-1.3554,-1.3559,-1.3573,-1.3605,-1.361,-1.3586,-1.3635,-1.3643,-1.3677,-1.3687,-1.3673,-1.3676,-1.3764,-1.3765,-1.3766,-1.376,0,0,0,0,0,0,-1.3433,-1.3445,-1.3457,-1.3493,-1.3505,-1.3557,-1.3555,-1.3561,-1.3579,-1.3579,-1.3614,-1.362,-1.3636,-1.3672,-1.368,-1.3691,-1.3679,-1.3764,-1.3765,-1.3766,-1.376,-1.3761,-1.3762,0,0,0,0,0,-1.3429,-1.3453,-1.3458,-1.3468,-1.3522,-1.3558,-1.3565,-1.3583,-1.358,-1.3592,-1.3612,-1.3618,-1.3685,-1.3675,-1.3684,-1.3697,-1.3763,-1.3764,-1.3766,-1.3759,-1.3761,-1.3762,0,0,0,0,0,0,-1.3418,-1.3458,-1.3464,-1.3501,-1.3525,-1.356,-1.3577,-1.3584,-1.361,-1.361,-1.3631,-1.3639,-1.367,-1.3687,-1.3676,-1.3727,-1.3724,-1.3727,-1.3716,-1.3717,-1.3718,-1.3714,-1.3681,0,0,0,0,0,-1.342,-1.3446,-1.348,-1.3509,-1.3521,-1.3547,-1.3563,-1.3575,-1.3601,-1.3612,-1.3634,-1.3659,-1.3685,-1.3702,-1.3728,-1.3762,-1.3769,-1.3775,-1.3776,-1.3777,-1.3779,-1.3797,-1.3799,-1.3771,-1.3771,-1.3771,0,0,-1.3425,-1.345,-1.3465,-1.3507,-1.3528,-1.3554,-1.3555,-1.3583,-1.3602,-1.3616,-1.3648,-1.3665,-1.3694,-1.3728,-1.3743,-1.3742,-1.3788,-1.3779,-1.3779,-1.3781,-1.3798,-1.3801,-1.3803,-1.3772,-1.3772,-1.3772,0,0,-1.3445,-1.3468,-1.3494,-1.3514,-1.3545,-1.3562,-1.3567,-1.3601,-1.3613,-1.3646,-1.3656,-1.3678,-1.3724,-1.3744,-1.376,-1.3785,-1.3792,-1.3793,-1.3799,-1.3816,-1.3818,-1.382,-1.3828,-1.3831,-1.3796,-1.3796,-1.3796,0,-1.3447,-1.3487,-1.3506,-1.3532,-1.355,-1.3563,-1.3589,-1.3608,-1.3646,-1.3657,-1.3655,-1.3711,-1.3732,-1.3769,-1.3775,-1.3788,-1.3795,-1.379,-1.3816,-1.3819,-1.3821,-1.3829,-1.3832,-1.3796,-1.3796,-1.3796,-1.3796,0,-1.3486,-1.3513,-1.353,-1.3566,-1.3586,-1.3612,-1.3634,-1.3651,-1.366,-1.3677,-1.3709,-1.3734,-1.3765,-1.3774,-1.3784,-1.3812,-1.381,-1.3812,-1.3809,-1.3823,-1.3831,-1.3834,-1.3795,-1.3795,-1.3796,-1.3796,0,0,-1.3503,-1.3548,-1.3554,-1.357,-1.3604,-1.3625,-1.3651,-1.3681,-1.3694,-1.372,-1.3741,-1.3778,-1.3779,-1.3797,-1.3809,-1.3824,-1.3841,-1.3824,-1.3825,-1.3825,-1.3872,-1.387,-1.3873,-1.3845,-1.3846,-1.3847,-1.3869,0,-1.3528,-1.3575,-1.3592,-1.363,-1.3655,-1.3667,-1.3689,-1.3712,-1.3727,-1.3749,-1.3766,-1.3791,-1.3792,-1.3803,-1.3818,-1.3836,-1.3851,-1.3834,-1.3865,-1.3865,-1.3857,-1.3878,-1.3876,-1.3896,-1.3872,-1.3873,-1.3873,0,-1.3563,-1.3588,-1.3629,-1.3659,-1.3669,-1.3689,-1.3717,-1.3738,-1.3764,-1.3774,-1.3793,-1.3803,-1.3829,-1.3824,-1.386,-1.3848,-1.3861,-1.3872,-1.3873,-1.3876,-1.387,-1.3881,-1.3903,-1.3906,-1.3879,-1.3878,-1.3878,0,-1.357,-1.3614,-1.3644,-1.3657,-1.3693,-1.3706,-1.3721,-1.3746,-1.3762,-1.3786,-1.3797,-1.3823,-1.3838,-1.3858,-1.3874,-1.3869,-1.3908,-1.3904,-1.3916,-1.3915,-1.3923,-1.3923,-1.3948,-1.3932,-1.3932,-1.3932,-1.3932,0,-1.3596,-1.362,-1.3647,-1.3666,-1.3692,-1.3711,-1.3736,-1.3752,-1.3774,-1.3795,-1.3807,-1.3825,-1.3847,-1.3868,-1.3881,-1.3908,-1.3914,-1.3922,-1.3925,-1.3921,-1.392,-1.393,-1.3929,-1.3933,-1.3933,-1.3933,-1.3933,0,-1.3608,-1.3628,-1.3661,-1.3691,-1.3699,-1.3718,-1.3743,-1.3761,-1.3776,-1.3802,-1.3809,-1.3833,-1.3858,-1.3877,-1.391,-1.3919,-1.3946,-1.395,-1.3938,-1.3939,-1.395,-1.3948,-1.3982,-1.3986,-1.3968,-1.3968,-1.3969,0,-1.3623,-1.3642,-1.3674,-1.3689,-1.3704,-1.3728,-1.3744,-1.3762,-1.3779,-1.3808,-1.3821,-1.3848,-1.387,-1.391,-1.3929,-1.3954,-1.3958,-1.3968,-1.3962,-1.3956,-1.3957,-1.3955,-1.3957,-1.3969,-1.3969,-1.3969,-1.3969,0,-1.3647,-1.3655,-1.3679,-1.3705,-1.3724,-1.3746,-1.3767,-1.3779,-1.38,-1.3818,-1.3844,-1.3861,-1.3894,-1.392,-1.3946,-1.3961,-1.3968,-1.397,-1.3974,-1.397,-1.3962,-1.3965,-1.394,-1.397,-1.397,-1.397,-1.397,-1.3969,-1.3661,-1.3677,-1.3702,-1.3727,-1.3745,-1.3765,-1.3782,-1.3799,-1.3822,-1.385,-1.3859,-1.3886,-1.3909,-1.3945,-1.396,-1.398,-1.398,-1.3986,-1.3987,-1.3988,-1.3987,-1.3959,-1.3985,-1.3985,-1.3985,-1.3985,-1.3985,0,-1.3684,-1.37,-1.3723,-1.3753,-1.3772,-1.3778,-1.3801,-1.3817,-1.384,-1.3861,-1.3882,-1.3911,-1.3936,-1.3957,-1.3982,-1.3994,-1.3997,-1.4,-1.3999,-1.4002,-1.3987,-1.3981,-1.3996,-1.3996,-1.3996,-1.3996,-1.3996,-1.3996,-1.3699,-1.3727,-1.3738,-1.3774,-1.379,-1.3816,-1.3829,-1.3847,-1.3863,-1.3895,-1.3916,-1.3929,-1.395,-1.3976,-1.3998,-1.4003,-1.4011,-1.4012,-1.4019,-1.4004,-1.4003,-1.4002,-1.3996,-1.4014,-1.4014,-1.4032,-1.4032,-1.4032]}]]